Content
SEND FEEDBACK

Daily
Averages
Monthly
Summary
United States of America

PYGA BEACH, GUAM


Home > North America > United States > Guam
Elevation: 20 feet     Latitude: 13 17N     Longitude: 144 39E

WEATHER
 
SELECT A DAY
Number of Records: 341,964;   Date Range: 1/1/95 - 7/26/14
 
SHARE

PRINT THIS DATA

[ ← Previous Day ]
WEATHER ALMANAC - MAY 3, 2014
[ Next Day → ]
[ °C ]   °F
Weather ElementAverageHighLow
Temperature81.1 °F86 °F (11:58 am)78.8 °F (12:53 am)
Dewpoint76.1 °F77.5 °F (11:58 am)75.2 °F (2:08 am)
Humidity85 %94 % (12:53 am)74 % (2:33 pm)
Barometer29.85 in29.92 in (10:28 pm)29.77 in (2:58 pm)
Wind Speed13.5 mph19.6 mph (1:38 pm)
Wind Gust24.2 mph (12:08 pm)
Weather ElementAverage
Visibility10 mi
Wind DirectionESE (96.7 °)

Weather ElementTotal
Precipitation---
Cooling Degree Days17.4 (Base 65)
Growing Degree Days32.4 (Base 50)
Averaged from 90 records on May 3, 2014
WEATHER CONDITIONS BREAKOUT
WIND DIRECTION BREAKOUT
WEATHER BY HOUR - MAY 3, 2014
[ °C ]   °F
Local TimeTemperatureDewpointHumidityBarometerVisibilityWind DirectionWind SpeedGust SpeedPrecipitationEventsConditions
12:53 AM78.8 °F77.0 °F94 %29.88 in10.0 miENE (70°)11.5 mphMostly Cloudy
12:58 AM78.8 °F76.3 °F92 %29.86 in10.0 miEast (80°)10.4 mphMostly Cloudy
1:03 AM78.8 °F77.0 °F94 %29.88 in10.0 miENE (60°)11.5 mphMostly Cloudy
1:08 AM78.8 °F77.0 °F94 %29.88 in10.0 miENE (60°)9.2 mphMostly Cloudy
1:28 AM78.8 °F77.0 °F94 %29.87 in10.0 miENE (60°)10.4 mphMostly Cloudy
1:43 AM78.8 °F77.0 °F94 %29.86 in10.0 miENE (70°)10.4 mphMostly Cloudy
1:58 AM79.2 °F76.3 °F91 %29.82 in10.0 miENE (60°)12.7 mphMostly Cloudy
2:08 AM78.8 °F75.2 °F89 %29.86 in10.0 miENE (60°)10.4 mphScattered Clouds
2:13 AM78.8 °F75.2 °F89 %29.86 in10.0 miENE (60°)9.2 mphMostly Cloudy
2:18 AM78.8 °F75.2 °F89 %29.85 in10.0 miENE (70°)9.2 mphScattered Clouds
2:58 AM78.8 °F75.7 °F90 %29.82 in10.0 miENE (60°)10.4 mphScattered Clouds
3:58 AM78.8 °F75.7 °F90 %29.81 in10.0 miENE (60°)11.5 mphScattered Clouds
4:08 AM78.8 °F75.2 °F89 %29.83 in10.0 miENE (60°)10.4 mphMostly Cloudy
4:13 AM78.8 °F75.2 °F89 %29.84 in10.0 miENE (60°)12.7 mphScattered Clouds
4:28 AM78.8 °F75.2 °F89 %29.84 in10.0 miENE (60°)12.7 mphMostly Cloudy
4:33 AM78.8 °F75.2 °F89 %29.84 in10.0 miENE (60°)13.8 mphScattered Clouds
4:48 AM78.8 °F75.2 °F89 %29.84 in10.0 miENE (60°)12.7 mphScattered Clouds
4:58 AM79.2 °F76.1 °F90 %29.81 in10.0 miENE (70°)10.4 mphScattered Clouds
5:18 AM78.8 °F77.0 °F94 %29.84 in10.0 miENE (70°)11.5 mphMostly Cloudy
5:28 AM78.8 °F75.2 °F89 %29.84 in10.0 miENE (70°)12.7 mphMostly Cloudy
5:33 AM78.8 °F75.2 °F89 %29.84 in10.0 miENE (70°)10.4 mphMostly Cloudy
5:38 AM78.8 °F75.2 °F89 %29.84 in10.0 miEast (80°)11.5 mphMostly Cloudy
5:43 AM78.8 °F75.2 °F89 %29.84 in10.0 miENE (60°)11.5 mphMostly Cloudy
5:48 AM78.8 °F77.0 °F94 %29.84 in10.0 miENE (70°)11.5 mphMostly Cloudy
5:53 AM78.8 °F75.2 °F89 %29.84 in10.0 miENE (60°)11.5 mphMostly Cloudy
5:58 AM79.2 °F76.1 °F90 %29.81 in10.0 miENE (60°)12.7 mphMostly Cloudy
6:13 AM78.8 °F75.2 °F89 %29.85 in10.0 miENE (70°)11.5 mphScattered Clouds
6:18 AM78.8 °F75.2 °F89 %29.85 in10.0 miENE (60°)12.7 mphMostly Cloudy
6:23 AM78.8 °F75.2 °F89 %29.85 in10.0 miENE (70°)13.8 mphMostly Cloudy
6:58 AM79.7 °F76.1 °F89 %29.83 in10.0 miEast (80°)15.0 mphMostly Cloudy
7:23 AM80.6 °F77.0 °F89 %29.86 in10.0 miENE (70°)12.7 mphMostly Cloudy
7:28 AM80.6 °F77.0 °F89 %29.86 in10.0 miEast (80°)12.7 mphMostly Cloudy
7:33 AM80.6 °F77.0 °F89 %29.86 in10.0 miENE (70°)18.4 mph21.9 mphMostly Cloudy
7:43 AM80.6 °F75.2 °F84 %29.86 in10.0 miEast (80°)15.0 mphMostly Cloudy
7:48 AM80.6 °F77.0 °F89 %29.87 in10.0 miEast (80°)15.0 mphMostly Cloudy
7:58 AM80.8 °F76.5 °F87 %29.84 in10.0 miEast (80°)13.8 mphMostly Cloudy
8:03 AM80.6 °F75.2 °F84 %29.87 in10.0 miENE (70°)16.1 mphMostly Cloudy
8:08 AM80.6 °F77.0 °F89 %29.87 in10.0 miEast (80°)13.8 mphMostly Cloudy
8:28 AM80.6 °F75.2 °F84 %29.87 in10.0 miEast (80°)13.8 mph23.0 mphMostly Cloudy
8:38 AM82.4 °F77.0 °F84 %29.87 in10.0 miEast (90°)12.7 mphScattered Clouds
8:58 AM82.4 °F77.0 °F84 %29.84 in10.0 miEast (90°)16.1 mph21.9 mphMostly Cloudy
9:08 AM82.4 °F77.0 °F84 %29.88 in10.0 miEast (90°)16.1 mphMostly Cloudy
9:13 AM82.4 °F77.0 °F84 %29.88 in10.0 miEast (90°)16.1 mphMostly Cloudy
9:58 AM83.3 °F77.4 °F82 %29.86 in10.0 miEast (90°)16.1 mph23.0 mphMostly Cloudy
10:18 AM84.2 °F77.0 °F79 %29.88 in10.0 miEast (90°)18.4 mph23.0 mphScattered Clouds
10:33 AM84.2 °F77.0 °F79 %29.88 in10.0 miESE (110°)17.3 mphMostly Cloudy
10:38 AM84.2 °F77.0 °F79 %29.88 in10.0 miEast (100°)17.3 mph21.9 mphScattered Clouds
10:48 AM84.2 °F77.0 °F79 %29.88 in10.0 miEast (100°)16.1 mphMostly Cloudy
10:58 AM83.8 °F76.8 °F79 %29.84 in10.0 miEast (100°)16.1 mphMostly Cloudy
11:03 AM84.2 °F77.0 °F79 %29.87 in10.0 miEast (90°)17.3 mphMostly Cloudy
11:08 AM84.2 °F77.0 °F79 %29.87 in10.0 miESE (110°)15.0 mphMostly Cloudy
11:58 AM86.0 °F77.5 °F76 %29.82 in10.0 miESE (110°)17.3 mphMostly Cloudy
12:08 PM84.2 °F77.0 °F79 %29.85 in10.0 miESE (110°)15.0 mph24.2 mphMostly Cloudy
12:13 PM84.2 °F77.0 °F79 %29.85 in10.0 miESE (120°)17.3 mph21.9 mphOvercast
12:28 PM84.2 °F77.0 °F79 %29.84 in10.0 miESE (120°)18.4 mph23.0 mphOvercast
12:33 PM84.2 °F77.0 °F79 %29.84 in10.0 miESE (120°)18.4 mph23.0 mphOvercast
12:38 PM84.2 °F77.0 °F79 %29.84 in10.0 miESE (110°)16.1 mphOvercast
12:43 PM84.2 °F77.0 °F79 %29.84 in10.0 miESE (120°)18.4 mphMostly Cloudy
12:58 PM84.2 °F77.0 °F79 %29.81 in10.0 miESE (120°)16.1 mph23.0 mphOvercast
1:38 PM84.2 °F77.0 °F79 %29.82 in10.0 miESE (110°)19.6 mphOvercast
1:58 PM84.6 °F77.5 °F79 %29.78 in10.0 miSE (130°)16.1 mphMostly Cloudy
2:18 PM84.2 °F77.0 °F79 %29.81 in9.0 miESE (120°)16.1 mphOvercast
2:28 PM82.4 °F77.0 °F84 %29.81 in10.0 miSE (130°)18.4 mphMostly Cloudy
2:33 PM84.2 °F75.2 °F74 %29.81 in10.0 miSE (130°)19.6 mphMostly Cloudy
2:58 PM83.8 °F76.6 °F79 %29.77 in10.0 miSE (130°)18.4 mphMostly Cloudy
3:33 PM84.2 °F77.0 °F79 %29.81 in10.0 miSE (130°)17.3 mphScattered Clouds
3:58 PM84.2 °F76.1 °F77 %29.78 in10.0 miSE (130°)17.3 mphScattered Clouds
4:48 PM82.4 °F75.2 °F79 %29.82 in10.0 miSE (130°)15.0 mphMostly Cloudy
4:58 PM82.8 °F76.3 °F81 %29.79 in10.0 miSE (130°)13.8 mphMostly Cloudy
5:38 PM82.4 °F75.2 °F79 %29.84 in10.0 miSE (130°)13.8 mphMostly Cloudy
5:43 PM82.4 °F75.2 °F79 %29.84 in10.0 miSE (130°)11.5 mphMostly Cloudy
5:48 PM82.4 °F75.2 °F79 %29.84 in10.0 miSE (140°)11.5 mphMostly Cloudy
5:58 PM81.9 °F75.9 °F82 %29.82 in10.0 miSE (140°)15.0 mphMostly Cloudy
6:03 PM82.4 °F75.2 °F79 %29.85 in10.0 miSE (130°)12.7 mphScattered Clouds
6:13 PM80.6 °F75.2 °F84 %29.86 in10.0 miSE (140°)12.7 mphMostly Cloudy
6:18 PM80.6 °F75.2 °F84 %29.86 in10.0 miSE (140°)10.4 mphMostly Cloudy
6:33 PM80.6 °F75.2 °F84 %29.87 in10.0 miSE (140°)13.8 mphMostly Cloudy
6:58 PM81.0 °F75.6 °F84 %29.84 in10.0 miSE (140°)10.4 mphMostly Cloudy
7:03 PM80.6 °F75.2 °F84 %29.87 in10.0 miSE (130°)10.4 mphMostly Cloudy
7:29 PM80.6 °F75.2 °F84 %29.88 in10.0 miSE (130°)12.7 mphLight Drizzle
7:38 PM78.8 °F75.2 °F89 %29.88 in10.0 miSE (140°)9.2 mphMostly Cloudy
7:58 PM80.1 °F76.3 °F88 %29.86 in10.0 miSE (130°)8.1 mph0.00 inMostly Cloudy
8:13 PM80.6 °F75.2 °F84 %29.89 in10.0 miSE (130°)11.5 mphMostly Cloudy
8:58 PM80.2 °F75.6 °F86 %29.87 in10.0 miSE (130°)10.4 mphScattered Clouds
9:08 PM80.6 °F75.2 °F84 %29.90 in10.0 miESE (120°)10.4 mphMostly Cloudy
9:58 PM80.1 °F75.9 °F87 %29.88 in10.0 miESE (120°)10.4 mphMostly Cloudy
10:28 PM80.6 °F75.2 °F84 %29.92 in10.0 miESE (120°)11.5 mphScattered Clouds
10:58 PM79.7 °F75.2 °F86 %29.89 in10.0 miESE (110°)9.2 mphPartly Cloudy
11:53 PM80.6 °F75.2 °F84 %29.91 in10.0 miESE (110°)8.1 mphMostly Cloudy
11:58 PM80.1 °F75.4 °F86 %29.88 in10.0 miEast (100°)10.4 mphMostly Cloudy
Hourly data recorded from PGUA, located miles away from Pyga Beach, Guam







STORIES FROM OUR PARTNERS